GW6916 Weather Reports


time (UTC)temp
F
wind
direction
speed
knots
gust
knots
rain 1hr
in
rain 24hr
in
rain mn
in
humidity
%
barometer
mb
20260504150952 69 15 3.5 5.2 0.00 0.00 0.00 43 1017.3
20260504150449 69 234 4.3 6.1 0.00 0.00 0.00 42 1017.1
20260504140915 64 275 2.6 2.6 0.00 0.00 0.00 47 1017.5
20260504140411 65 309 5.2 6.1 0.00 0.00 0.00 49 1017.5
20260504130337 61 269 2.6 2.6 0.00 0.00 0.00 56 1017.5
20260504120300 53 206 0.9 0.9 0.00 0.00 0.00 69 1017.9
20260504110224 46 189 0.0 0.0 0.00 0.00 0.00 81 1017.5
20260504100148 48 185 0.9 0.9 0.00 0.00 0.00 74 1017.2
20260504090110 46 204 0.0 0.0 0.00 0.00 0.00 78 1017.1
20260504081541 47 200 0.0 0.0 0.00 0.00 0.00 79 1017.0
20260504081036 47 200 0.0 0.9 0.00 0.00 0.00 77 1017.3
20260504080533 47 200 0.9 0.9 0.00 0.00 0.00 78 1017.1
20260504050346 53 201 0.0 0.0 0.00 0.00 0.00 63 1017.7
20260504045843 53 229 0.9 0.9 0.00 0.00 0.00 63 1017.9
20260504045338 52 249 0.9 0.9 0.00 0.00 0.00 64 1017.8
20260504044835 52 232 0.9 0.9 0.00 0.00 0.00 66 1017.5
20260504044332 52 258 0.9 0.9 0.00 0.00 0.00 67 1017.7
20260504043830 52 176 0.9 0.9 0.00 0.00 0.00 64 1017.5
20260504043326 52 177 0.9 0.9 0.00 0.00 0.00 65 1017.5
20260504042824 52 196 2.6 2.6 0.00 0.00 0.00 65 1017.4
20260504042320 53 185 0.9 1.7 0.00 0.00 0.00 63 1017.4
20260504041816 53 190 1.7 1.7 0.00 0.00 0.00 64 1017.7
20260504041312 53 175 1.7 1.7 0.00 0.00 0.00 64 1017.7
20260504040809 53 144 0.0 0.0 0.00 0.00 0.00 65 1017.8
20260504040306 53 143 0.0 0.9 0.00 0.00 0.00 63 1017.6
20260504035802 54 135 0.0 0.0 0.00 0.00 0.00 63 1017.6
20260504035300 54 135 0.9 0.9 0.00 0.00 0.00 63 1017.6
20260504034757 54 150 1.7 1.7 0.00 0.00 0.00 62 1017.6
20260504034254 54 162 0.0 0.0 0.00 0.00 0.00 64 1017.5
20260504033751 54 165 0.9 0.9 0.00 0.00 0.00 63 1017.8
20260504033249 54 176 1.7 1.7 0.00 0.00 0.00 58 1017.6
20260504032745 55 192 0.0 0.0 0.00 0.00 0.00 60 1017.7
20260504032243 55 192 0.0 0.0 0.00 0.00 0.00 58 1017.4
20260504031739 56 193 0.0 0.0 0.00 0.00 0.00 56 1017.5
20260504031237 56 188 0.0 0.0 0.00 0.00 0.00 55 1017.7
20260504030732 57 172 0.9 0.9 0.00 0.00 0.00 55 1017.6
20260504030230 57 194 1.7 1.7 0.00 0.00 0.00 55 1017.5
20260504025726 57 190 0.0 0.0 0.00 0.00 0.00 54 1017.6
20260504025223 57 196 0.9 1.7 0.00 0.00 0.00 54 1017.5
20260504024720 57 201 1.7 1.7 0.00 0.00 0.00 54 1017.5
20260504024217 57 187 0.0 0.9 0.00 0.00 0.00 54 1017.4
20260504023714 57 182 0.0 0.0 0.00 0.00 0.00 54 1017.4
20260504023209 57 185 0.9 0.9 0.00 0.00 0.00 54 1017.2
20260504022706 57 192 0.9 1.7 0.00 0.00 0.00 53 1017.3
20260504022202 57 189 1.7 1.7 0.00 0.00 0.00 51 1017.0
20260504021700 58 176 0.9 0.9 0.00 0.00 0.00 52 1016.9
20260504021156 58 203 1.7 1.7 0.00 0.00 0.00 50 1017.0
20260504020653 58 188 0.0 0.0 0.00 0.00 0.00 50 1016.9
20260504020149 59 193 0.0 0.0 0.00 0.00 0.00 50 1016.7
20260504015646 59 171 0.0 0.0 0.00 0.00 0.00 49 1016.9
20260504015142 59 166 0.9 0.9 0.00 0.00 0.00 48 1016.9
20260504014638 60 249 2.6 2.6 0.00 0.00 0.00 48 1016.8
20260504014136 60 121 2.6 2.6 0.00 0.00 0.00 47 1016.5
20260504013633 60 173 1.7 2.6 0.00 0.00 0.00 47 1016.7
20260504013130 60 183 1.7 2.6 0.00 0.00 0.00 46 1016.4
20260504012627 61 169 1.7 1.7 0.00 0.00 0.00 46 1016.3
20260504012125 61 191 1.7 1.7 0.00 0.00 0.00 45 1016.2
20260504011622 61 176 1.7 1.7 0.00 0.00 0.00 44 1016.2
20260504011118 62 158 3.5 5.2 0.00 0.00 0.00 44 1016.4
20260504010614 62 166 0.9 0.9 0.00 0.00 0.00 44 1016.4
20260504010110 62 155 1.7 1.7 0.00 0.00 0.00 44 1016.2
20260504005607 62 179 3.5 5.2 0.00 0.00 0.00 43 1016.2
20260504005104 62 196 2.6 2.6 0.00 0.00 0.00 43 1016.2
20260504004602 63 184 3.5 4.3 0.00 0.00 0.00 43 1015.9
20260504004059 63 165 1.7 1.7 0.00 0.00 0.00 42 1016.0
20260504003555 63 172 2.6 2.6 0.00 0.00 0.00 42 1015.9
20260504003052 63 155 2.6 2.6 0.00 0.00 0.00 42 1016.1
20260504002549 64 163 2.6 2.6 0.00 0.00 0.00 42 1015.8
20260504002046 64 161 0.0 0.9 0.00 0.00 0.00 42 1015.9
20260504001544 64 186 3.5 4.3 0.00 0.00 0.00 41 1016.0
20260504001039 65 169 1.7 1.7 0.00 0.00 0.00 41 1015.7
20260504000537 65 181 5.2 6.1 0.00 0.00 0.00 40 1015.6
20260504000034 66 152 2.6 2.6 0.00 0.00 0.00 40 1015.6
20260503235533 66 223 4.3 6.1 0.00 0.00 0.00 39 1015.8
20260503235029 67 218 2.6 2.6 0.00 0.00 0.00 39 1015.6
20260503234527 67 138 4.3 5.2 0.00 0.00 0.00 38 1015.9
20260503234025 67 195 6.1 7.0 0.00 0.00 0.00 38 1015.6
20260503233521 68 191 1.7 1.7 0.00 0.00 0.00 38 1015.6
20260503233017 68 187 2.6 2.6 0.00 0.00 0.00 38 1015.7
20260503232514 68 183 3.5 4.3 0.00 0.00 0.00 37 1015.7
20260503232012 68 169 5.2 7.0 0.00 0.00 0.00 36 1015.7
20260503231510 68 171 3.5 4.3 0.00 0.00 0.00 36 1015.7
20260503231006 69 162 1.7 1.7 0.00 0.00 0.00 35 1015.7
20260503230503 69 179 6.1 7.8 0.00 0.00 0.00 36 1015.7
20260503230000 69 175 7.8 8.7 0.00 0.00 0.00 35 1015.8
20260503225456 69 175 4.3 5.2 0.00 0.00 0.00 35 1015.7
20260503224952 70 155 2.6 4.3 0.00 0.00 0.00 36 1015.7
20260503224449 71 161 3.5 4.3 0.00 0.00 0.00 35 1015.8
20260503223947 69 77 0.9 0.9 0.00 0.00 0.00 35 1015.9
20260503223445 70 168 6.1 7.8 0.00 0.00 0.00 36 1015.9
20260503222940 70 211 7.0 8.7 0.00 0.00 0.00 35 1015.8
20260503222439 70 178 1.7 2.6 0.00 0.00 0.00 35 1015.8
20260503221937 70 159 2.6 4.3 0.00 0.00 0.00 36 1015.6
20260503221435 70 165 7.0 8.7 0.00 0.00 0.00 34 1015.9
20260503220931 71 136 5.2 5.2 0.00 0.00 0.00 34 1015.8
20260503220428 70 175 6.1 7.0 0.00 0.00 0.00 34 1015.9
20260503215925 70 245 0.9 1.7 0.00 0.00 0.00 33 1016.0
20260503215421 71 254 3.5 7.0 0.00 0.00 0.00 33 1016.0
20260503214919 71 94 1.7 1.7 0.00 0.00 0.00 32 1016.0
20260503214416 71 166 4.3 5.2 0.00 0.00 0.00 32 1015.9
20260503213914 71 212 3.5 4.3 0.00 0.00 0.00 32 1016.0
20260503213412 72 278 7.0 8.7 0.00 0.00 0.00 31 1015.9
20260503212908 72 208 2.6 4.3 0.00 0.00 0.00 31 1016.2
20260503212406 72 253 2.6 2.6 0.00 0.00 0.00 30 1016.2
20260503211903 71 186 5.2 6.1 0.00 0.00 0.00 30 1016.3
20260503211359 71 193 2.6 4.3 0.00 0.00 0.00 32 1015.9
20260503210854 71 170 0.9 1.7 0.00 0.00 0.00 31 1015.9
20260503210352 70 294 3.5 4.3 0.00 0.00 0.00 30 1016.4
20260503205847 72 228 3.5 4.3 0.00 0.00 0.00 30 1016.3
20260503205344 71 169 1.7 2.6 0.00 0.00 0.00 29 1016.3
20260503204840 71 213 0.9 1.7 0.00 0.00 0.00 28 1016.3
20260503204338 71 234 4.3 5.2 0.00 0.00 0.00 29 1016.7
20260503203835 72 275 5.2 7.8 0.00 0.00 0.00 29 1016.5
20260503203332 71 202 0.9 1.7 0.00 0.00 0.00 29 1016.4
20260503202829 71 270 2.6 2.6 0.00 0.00 0.00 29 1016.6
20260503202327 71 169 5.2 6.1 0.00 0.00 0.00 28 1016.7
20260503201825 71 314 4.3 6.1 0.00 0.00 0.00 30 1016.6
20260503201322 70 262 2.6 2.6 0.00 0.00 0.00 30 1017.0
20260503200820 71 331 1.7 2.6 0.00 0.00 0.00 28 1016.9
20260503200315 70 175 6.1 9.6 0.00 0.00 0.00 29 1017.1
20260503195813 71 127 6.1 7.0 0.00 0.00 0.00 27 1017.2
20260503195309 70 159 7.8 9.6 0.00 0.00 0.00 27 1017.3
20260503194807 71 132 3.5 4.3 0.00 0.00 0.00 28 1017.4
20260503194302 70 335 0.9 1.7 0.00 0.00 0.00 29 1017.6
20260503193758 69 331 2.6 4.3 0.00 0.00 0.00 28 1017.6
20260503193254 69 260 2.6 2.6 0.00 0.00 0.00 29 1017.7
20260503192750 70 257 6.1 7.0 0.00 0.00 0.00 30 1017.8
20260503192245 70 233 2.6 4.3 0.00 0.00 0.00 29 1017.9
20260503191743 70 287 6.1 7.8 0.00 0.00 0.00 29 1018.0
20260503191240 68 279 4.3 5.2 0.00 0.00 0.00 29 1017.8
20260503190737 70 305 7.8 7.8 0.00 0.00 0.00 28 1018.1
20260503190233 68 18 0.9 1.7 0.00 0.00 0.00 30 1018.1
20260503185731 69 259 2.6 2.6 0.00 0.00 0.00 30 1018.3
20260503185226 71 237 7.0 8.7 0.00 0.00 0.00 30 1018.3
20260503184721 69 141 0.0 0.9 0.00 0.00 0.00 29 1018.4
20260503184217 69 44 2.6 2.6 0.00 0.00 0.00 29 1018.2
20260503183714 68 174 7.0 8.7 0.00 0.00 0.00 30 1018.2
20260503183211 67 280 3.5 4.3 0.00 0.00 0.00 31 1018.5
20260503182709 67 232 4.3 7.0 0.00 0.00 0.00 30 1018.4
20260503182208 68 316 6.1 7.0 0.00 0.00 0.00 32 1018.4
20260503181703 67 141 6.1 7.8 0.00 0.00 0.00 33 1018.5
20260503181201 66 173 5.2 7.0 0.00 0.00 0.00 34 1018.5
20260503180657 67 171 7.8 8.7 0.00 0.00 0.00 37 1018.8
20260503180156 67 179 5.2 7.0 0.00 0.00 0.00 40 1018.9
20260503175652 67 181 4.3 6.1 0.00 0.00 0.00 39 1019.0
20260503175150 67 162 7.8 8.7 0.00 0.00 0.00 39 1018.8
20260503174646 66 35 0.9 0.9 0.00 0.00 0.00 41 1018.8
20260503174143 66 259 4.3 4.3 0.00 0.00 0.00 41 1018.8
20260503173638 65 351 0.9 1.7 0.00 0.00 0.00 41 1018.9
20260503173135 66 99 5.2 7.0 0.00 0.00 0.00 41 1019.1
20260503172632 64 175 2.6 2.6 0.00 0.00 0.00 43 1019.1
20260503172129 66 172 7.0 9.6 0.00 0.00 0.00 43 1019.2
20260503171625 66 169 3.5 4.3 0.00 0.00 0.00 43 1019.1
20260503171123 65 247 3.5 6.1 0.00 0.00 0.00 42 1019.3
20260503170620 66 134 5.2 6.1 0.00 0.00 0.00 40 1019.3
20260503170116 64 115 2.6 4.3 0.00 0.00 0.00 42 1019.5